Location: Schoeneck
(50.3760°N, 12.3330°E)
Time: 19:48:17
(UTC+01:00)

ISS - Visible Passes

Search period start: 20 January 2018 00:00
Search period end: 30 January 2018 00:00
Orbit: 402 x 407 km, 51.6° (Epoch: 21 January)

Date Brightness Start Highest point End Pass type
(mag) Time Alt. Az. Time Alt. Az. Time Alt. Az.
26 Jan -1.8 18:54:52 10° SSW 18:56:26 19° S 18:56:26 19° S visible
27 Jan -1.6 18:03:33 10° S 18:05:19 14° SE 18:06:28 12° ESE visible
27 Jan -1.3 19:38:03 10° SW 19:39:08 19° SW 19:39:08 19° SW visible
28 Jan -3.1 18:45:55 10° SW 18:48:59 38° SSE 18:49:05 38° SE visible
29 Jan -2.4 17:54:00 10° SSW 17:56:44 25° SE 17:58:58 13° E visible
29 Jan -2.2 19:29:40 10° WSW 19:31:38 33° WSW 19:31:38 33° WSW visible
